THORAD AGENA D DEB, 5347

Orbit data source: Space-Track

THORAD AGENA D DEB, 5347 is space debris in SSO originally from a launch on Wed, 08 Apr 1970 UTC launched from the Air Force Western Test Range (AFWTR). Debris objects in space refer to the collection of defunct objects orbiting the Earth. Examples of debris include non-operational satellites, rocket bodies, and fragments generated from explosions, collisions, or faulty payload assembly.

Loading next visibility...
Identifier
5347, 1970-025KL
Orbit
SSO
Country
Flag of USUS
Related business
Manufacturer
Unknown
Mission
Spacecraft
Bus & Motor
Unknown
Mass
Unknown
Launch date (UTC)
1970-04-08 (56 years ago)
Launch vehicle
Unknown
Launch site
Air Force Western Test Range (AFWTR)
Object type
Payload
Rocket body
Debris
Shape & HBR
Unknown shape, 0.1 m
Radar Cross Section
Small (<0.1 m²)

Expand to show TLE details & history
Last TLE update: 11 hours ago

TLE from 11 hours ago
0 THORAD AGENA D DEB
1 05347U 70025KL  25287.67761699  .00000919  00000-0  82711-3 0  9999
2 05347  99.9166 183.1834 0044089 115.2738 274.8277 13.86582518722882
Epoch: 2025-10-14T16:15Z
TLE epoch observation values (Epoch: 2025-10-14T16:15:46.107Z)
Latitude
29.16092°
Longitude
-89.79016°
Altitude
941.598 km
Speed
7.385 km/s
True Right ascension
11h 50m 27s
True Declination
29° 01' 07"
Sunlit
Object was in daylight at epoch
Visualization orbit readout
Latitude
Unknown
Longitude
Unknown
Altitude
Unknown
Speed
Unknown
Apparent Right ascension
Unknown
Apparent Declination
Unknown
Sunlit
N/A
Visualization observer readout
Local Sidereal Time
22:05:52
Azimuth
Unknown
Elevation
Unknown
Doppler factor
Unknown
Orbital elements
Apogee altitude
970.152 km
Perigee altitude
905.64 km
Semi-major axis
7,316.033 km
Eccentricity
0.00441
Inclination
99.9166°
RAAN
183.1834°
Arg. of periapsis
115.2738°
True anomaly
274.32404°
Mean anomaly
274.8277°
Eccentric anomaly
274.57589°
Mean motion
3.4684 °/min
Orbital period
103.79 mins
BSTAR
0.00082711

Documentation

Showing up to 5 results
|